When you browse on this site, cookies collect data to enhance your experience and personalize the content and advertising you see.
Visit our Privacy Policy to learn more. By continuing to use the site, you agree to this use of cookies and data.
  • In Hungary
  • List of Countries
  • For 7 days
  • Water Temperature
  • Satellite Maps
  • Weather Map
  • News
  • Weather Widgets
  • user-avatar
    Login

    Hourly Weather Sur

    Today, 24 March, Sunday

    Time Temperature Precipitation Wind Pressure Humidity
    00:00 +28°C° 0 mm 6 mps 759 mmHg 66%
    01:00 +28°C° 0 mm 6 mps 759 mmHg 69%
    02:00 +28°C° 0 mm 6 mps 758 mmHg 69%
    03:00 +27°C° 0 mm 5 mps 758 mmHg 69%
    04:00 +27°C° 0 mm 6 mps 758 mmHg 68%
    05:00 +27°C° 0 mm 5 mps 758 mmHg 63%
    06:00 +27°C° 0 mm 4 mps 758 mmHg 58%
    07:00 +27°C° 0 mm 4 mps 759 mmHg 54%
    08:00 +29°C° 0 mm 3 mps 759 mmHg 44%
    09:00 +31°C° 0 mm 3 mps 759 mmHg 33%
    10:00 +34°C° 0 mm 3 mps 759 mmHg 23%
    11:00 +35°C° 0 mm 4 mps 758 mmHg 22%
    12:00 +36°C° 0 mm 4 mps 758 mmHg 20%
    13:00 +39°C° 0 mm 5 mps 757 mmHg 19%
    14:00 +37°C° 0 mm 5 mps 757 mmHg 21%
    15:00 +37°C° 0 mm 5 mps 757 mmHg 23%
    16:00 +37°C° 0 mm 5 mps 756 mmHg 25%
    17:00 +35°C° 0 mm 5 mps 757 mmHg 32%
    18:00 +34°C° 0 mm 5 mps 757 mmHg 38%
    19:00 +32°C° 0 mm 5 mps 757 mmHg 44%
    20:00 +32°C° 0 mm 5 mps 757 mmHg 49%
    21:00 +30°C° 0 mm 4 mps 758 mmHg 55%
    22:00 +29°C° 0 mm 4 mps 758 mmHg 60%
    23:00 +28°C° 0 mm 4 mps 758 mmHg 62%

    Tomorrow, 25 March, Monday

    Time Temperature Precipitation Wind Pressure Humidity
    00:00 +28°C° 0 mm 5 mps 758 mmHg 65%
    01:00 +27°C° 0 mm 5 mps 758 mmHg 68%
    02:00 +27°C° 0 mm 5 mps 758 mmHg 66%
    03:00 +27°C° 0 mm 5 mps 757 mmHg 64%
    04:00 +27°C° 0 mm 5 mps 757 mmHg 63%
    05:00 +27°C° 0 mm 5 mps 758 mmHg 57%
    06:00 +27°C° 0 mm 5 mps 758 mmHg 52%
    07:00 +28°C° 0 mm 5 mps 758 mmHg 46%
    08:00 +30°C° 0 mm 5 mps 759 mmHg 38%
    09:00 +33°C° 0 mm 5 mps 759 mmHg 30%
    10:00 +35°C° 0 mm 5 mps 759 mmHg 22%
    11:00 +36°C° 0 mm 5 mps 759 mmHg 21%
    12:00 +38°C° 0 mm 6 mps 759 mmHg 20%
    13:00 +39°C° 0 mm 6 mps 758 mmHg 19%
    14:00 +39°C° 0 mm 7 mps 758 mmHg 20%
    15:00 +39°C° 0 mm 7 mps 757 mmHg 21%
    16:00 +39°C° 0 mm 7 mps 757 mmHg 22%
    17:00 +36°C° 0 mm 7 mps 757 mmHg 28%
    18:00 +34°C° 0 mm 7 mps 757 mmHg 33%
    19:00 +32°C° 0 mm 7 mps 757 mmHg 39%
    20:00 +32°C° 0 mm 6 mps 758 mmHg 43%
    21:00 +30°C° 0 mm 6 mps 758 mmHg 48%
    22:00 +29°C° 0 mm 5 mps 759 mmHg 52%
    23:00 +29°C° 0 mm 5 mps 758 mmHg 54%

    Day after tomorrow, 26 March, Tuesday

    Time Temperature Precipitation Wind Pressure Humidity
    00:00 +28°C° 0 mm 5 mps 758 mmHg 55%
    01:00 +28°C° 0 mm 5 mps 758 mmHg 56%
    02:00 +28°C° 0 mm 5 mps 758 mmHg 55%
    03:00 +27°C° 0 mm 5 mps 758 mmHg 53%
    04:00 +27°C° 0 mm 6 mps 757 mmHg 52%
    05:00 +27°C° 0 mm 6 mps 758 mmHg 48%
    06:00 +28°C° 0 mm 5 mps 758 mmHg 45%
    07:00 +28°C° 0 mm 5 mps 759 mmHg 41%
    08:00 +30°C° 0 mm 6 mps 759 mmHg 35%
    09:00 +33°C° 0 mm 6 mps 759 mmHg 28%
    10:00 +36°C° 0 mm 6 mps 759 mmHg 22%
    11:00 +38°C° 0 mm 7 mps 759 mmHg 21%
    12:00 +39°C° 0 mm 7 mps 759 mmHg 20%
    13:00 +40°C° 0 mm 8 mps 758 mmHg 19%
    14:00 +40°C° 0 mm 8 mps 758 mmHg 19%
    15:00 +40°C° 0 mm 8 mps 758 mmHg 19%
    16:00 +40°C° 0 mm 8 mps 757 mmHg 19%
    17:00 +38°C° 0 mm 8 mps 758 mmHg 24%
    18:00 +35°C° 0 mm 8 mps 758 mmHg 29%
    19:00 +33°C° 0 mm 8 mps 759 mmHg 34%
    20:00 +32°C° 0 mm 7 mps 759 mmHg 38%
    21:00 +32°C° 0 mm 6 mps 760 mmHg 42%
    22:00 +30°C° 0 mm 5 mps 760 mmHg 46%
    23:00 +30°C° 0 mm 5 mps 760 mmHg 46%

    27 March, Wednesday

    Time Temperature Precipitation Wind Pressure Humidity
    00:00 +29°C° 0 mm 5 mps 760 mmHg 46%
    01:00 +29°C° 0 mm 5 mps 759 mmHg 46%
    02:00 +29°C° 0 mm 5 mps 759 mmHg 42%
    03:00 +29°C° 0 mm 5 mps 759 mmHg 39%
    04:00 +29°C° 0 mm 5 mps 758 mmHg 35%
    05:00 +29°C° 0 mm 5 mps 759 mmHg 33%
    06:00 +29°C° 0 mm 5 mps 759 mmHg 31%
    07:00 +29°C° 0 mm 5 mps 760 mmHg 30%
    08:00 +32°C° 0 mm 5 mps 760 mmHg 25%
    09:00 +35°C° 0 mm 5 mps 761 mmHg 20%
    10:00 +37°C° 0 mm 4 mps 761 mmHg 16%
    11:00 +37°C° 0 mm 4 mps 761 mmHg 16%
    12:00 +37°C° 0 mm 4 mps 760 mmHg 17%
    13:00 +38°C° 0 mm 4 mps 760 mmHg 17%
    14:00 +37°C° 0 mm 4 mps 759 mmHg 23%
    15:00 +36°C° 0 mm 4 mps 759 mmHg 29%
    16:00 +35°C° 0 mm 5 mps 759 mmHg 34%
    17:00 +33°C° 0 mm 5 mps 759 mmHg 44%
    18:00 +32°C° 0 mm 5 mps 759 mmHg 54%
    19:00 +29°C° 0 mm 5 mps 760 mmHg 64%
    20:00 +29°C° 0 mm 4 mps 760 mmHg 65%
    21:00 +29°C° 0 mm 3 mps 760 mmHg 67%
    22:00 +28°C° 0 mm 2 mps 761 mmHg 69%
    23:00 +28°C° 0 mm 1 mps 760 mmHg 69%

    28 March, Thursday

    Time Temperature Precipitation Wind Pressure Humidity
    00:00 +28°C° 0 mm 1 mps 760 mmHg 68%
    01:00 +25°C° 0 mm 0 mps 759 mmHg 67%
    02:00 +27°C° 0 mm 1 mps 759 mmHg 65%
    03:00 +27°C° 0 mm 1 mps 759 mmHg 63%
    04:00 +27°C° 0 mm 1 mps 758 mmHg 61%
    05:00 +28°C° 0 mm 1 mps 759 mmHg 58%
    06:00 +28°C° 0 mm 1 mps 760 mmHg 54%
    07:00 +29°C° 0 mm 1 mps 760 mmHg 51%
    08:00 +31°C° 0 mm 2 mps 760 mmHg 43%
    09:00 +34°C° 0 mm 2 mps 760 mmHg 36%
    10:00 +35°C° 0 mm 3 mps 760 mmHg 28%
    11:00 +37°C° 0 mm 3 mps 760 mmHg 26%
    12:00 +38°C° 0 mm 4 mps 759 mmHg 23%
    13:00 +40°C° 0 mm 4 mps 759 mmHg 20%
    14:00 +39°C° 0 mm 5 mps 759 mmHg 24%
    15:00 +38°C° 0 mm 6 mps 758 mmHg 29%
    16:00 +38°C° 0 mm 6 mps 758 mmHg 33%
    17:00 +34°C° 0 mm 6 mps 759 mmHg 42%
    18:00 +32°C° 0 mm 6 mps 759 mmHg 52%
    19:00 +29°C° 0 mm 6 mps 759 mmHg 61%
    20:00 +29°C° 0 mm 5 mps 759 mmHg 60%
    21:00 +29°C° 0 mm 3 mps 759 mmHg 59%
    22:00 +29°C° 0 mm 1 mps 759 mmHg 58%
    23:00 +29°C° 0 mm 1 mps 759 mmHg 58%

    29 March, Friday

    Time Temperature Precipitation Wind Pressure Humidity
    00:00 +28°C° 0 mm 1 mps 758 mmHg 59%
    01:00 +28°C° 0 mm 1 mps 758 mmHg 59%
    02:00 +28°C° 0 mm 2 mps 758 mmHg 58%
    03:00 +28°C° 0 mm 2 mps 758 mmHg 58%
    04:00 +28°C° 0 mm 2 mps 758 mmHg 57%
    05:00 +28°C° 0 mm 2 mps 758 mmHg 54%
    06:00 +29°C° 0 mm 2 mps 759 mmHg 51%
    07:00 +29°C° 0 mm 2 mps 759 mmHg 48%
    08:00 +31°C° 0 mm 3 mps 759 mmHg 41%
    09:00 +34°C° 0 mm 3 mps 760 mmHg 34%
    10:00 +36°C° 0 mm 3 mps 760 mmHg 28%
    11:00 +37°C° 0 mm 3 mps 759 mmHg 26%
    12:00 +38°C° 0 mm 3 mps 759 mmHg 25%
    13:00 +40°C° 0 mm 4 mps 758 mmHg 24%
    14:00 +40°C° 0 mm 4 mps 757 mmHg 25%
    15:00 +38°C° 0 mm 4 mps 757 mmHg 25%
    16:00 +38°C° 0 mm 4 mps 757 mmHg 26%
    17:00 +37°C° 0 mm 4 mps 757 mmHg 31%
    18:00 +35°C° 0 mm 3 mps 758 mmHg 36%
    19:00 +34°C° 0 mm 2 mps 758 mmHg 41%
    20:00 +32°C° 0 mm 2 mps 758 mmHg 44%
    21:00 +31°C° 0 mm 2 mps 758 mmHg 47%
    22:00 +31°C° 0 mm 1 mps 759 mmHg 50%
    23:00 +31°C° 0 mm 2 mps 758 mmHg 50%
    Show more